Regional Weather Roundup
Issued by NWS

Home | Current Version | Previous Version | Text Only | Print | Product List | Glossary Off
Versions: 1 2 3 4 5 6 7 8 9 10 11 12 13 14 15 16 17 18 19 20 21 22 23 24 25 26 27 28 29 30 31 32 33 34 35 36 37 38 39 40 41 42 43 44 45 46 47 48 49 50

000
ASUS43 KOAX 180702
RWRNE

WEATHER ROUNDUP FOR NEBRASKA
NATIONAL WEATHER SERVICE OMAHA NE
100 AM CST WED JAN 18 2017

NOTES: SATELLITE DATA IS BEING USED TO AUGMENT CLOUD COVER ABOVE
       12000 FEET.
       "FAIR" INDICATES FEW OR NO CLOUDS BELOW 12,000 FEET WITH NO
       SIGNIFICANT WEATHER AND/OR OBSTRUCTIONS TO VISIBILITY.

  * THESE STATIONS DO NOT REPORT WEATHER SUCH AS RAIN...SNOW OR FOG.

NEZ001>004-019>022-054>056-180800-
NEBRASKA PANHANDLE

CITY           SKY/WX    TMP DP  RH WIND       PRES   REMARKS
SCOTTSBLUFF    CLOUDY    26  15  63 CALM      29.97S
ALLIANCE       CLOUDY    18  12  77 SW6       29.94S WCI  10
CHADRON        CLOUDY    22  15  75 W6        29.92F WCI  14
SIDNEY         CLOUDY    24  20  84 W8        29.98S WCI  15
$$

NEZ057>060-069>072-079>082-180800-
SOUTHWEST NEBRASKA

CITY           SKY/WX    TMP DP  RH WIND       PRES   REMARKS
NORTH PLATTE   CLOUDY    32  27  81 CALM      30.01F
IMPERIAL       CLOUDY    31  27  85 SW7       30.01F WCI  24
LEXINGTON      CLOUDY    34  28  78 W7        30.03F WCI  28
MCCOOK         CLOUDY    29  27  92 SW8       30.04F WCI  21
OGALLALA       CLOUDY    26  23  90 W5        30.02R WCI  20
$$

NEZ005>010-023>029-035>040-094-180800-
NORTH CENTRAL NEBRASKA

CITY           SKY/WX    TMP DP  RH WIND       PRES   REMARKS
VALENTINE      CLOUDY    25  19  78 SW6       29.90F WCI  18
AINSWORTH      CLOUDY    31  27  83 SW10      29.91S WCI  23
BROKEN BOW     CLOUDY    35  28  75 SW13      30.00F WCI  26
O`NEILL        CLOUDY    31  27  85 SW10      29.95S WCI  23
ORD            CLEAR     33  25  72 SW15      29.99F WCI  23
THEDFORD       CLOUDY    32  28  86 SW6       29.96S WCI  26
$$

NEZ041-046>049-061>064-073>077-083>087-180800-
SOUTH CENTRAL NEBRASKA

CITY           SKY/WX    TMP DP  RH WIND       PRES   REMARKS
GRAND ISLAND   CLOUDY    34  30  85 SW14      30.04F WCI  25
AURORA         CLOUDY    32  30  92 SW9       30.05F WCI  24
HASTINGS       CLOUDY    34  28  79 SW6       30.07F WCI  29
HEBRON         CLOUDY    31  28  90 W3        30.10S
HOLDREGE       CLEAR     32  26  80 SW7       30.05F WCI  26
KEARNEY *      CLOUDY    34  27  75 SW9       30.05F WCI  26
YORK           CLOUDY    32  30  93 SW9       30.06F WCI  24
$$

NEZ011>018-030>034-042>045-180800-
NORTHEAST NEBRASKA

CITY           SKY/WX    TMP DP  RH WIND       PRES   REMARKS
NORFOLK        CLOUDY    31  28  89 S15       30.00S WCI  20
ALBION         CLOUDY    31  27  83 S3        30.02S
BLAIR          CLEAR     30  29  96 S5        30.08S FOG     WCI  25
FREMONT        CLEAR     32  31  96 S7        30.08S WCI  26
TEKAMAH        CLOUDY    30  27  88 S12       30.08R FOG     WCI  20
WAYNE          CLOUDY    31  29  96 S10       30.01S WCI  22
$$

NEZ050>053-065>068-078-088>093-180800-
SOUTHEAST NEBRASKA

CITY           SKY/WX    TMP DP  RH WIND       PRES   REMARKS
LINCOLN        CLEAR     29  27  92 SE3       30.10F
OMAHA EPPLEY   CLEAR     25  20  81 SE10      30.11S FOG     WCI  15
BEATRICE       CLOUDY    28  26  96 CALM      30.11R
FALLS CITY     CLOUDY    27  26  96 S9        30.14R WCI  18
NEBRASKA CITY  CLOUDY    28  28 100 SW6       30.10F WCI  22
PLATTSMOUTH    CLOUDY    30  27  89 S9        30.10F WCI  21
$$

NEZ044-045-051>053-067-180800-
OMAHA AREA

CITY           SKY/WX    TMP DP  RH WIND       PRES   REMARKS
OMAHA EPPLEY   CLEAR     25  20  81 SE10      30.11S FOG     WCI  15
BLAIR          CLEAR     30  29  96 S5        30.08S FOG     WCI  25
FREMONT        CLEAR     32  31  96 S7        30.08S WCI  26
MILLARD        CLEAR     30  28  94 CALM      30.11S
OFFUTT AFB     CLEAR     26  26 100 SE5       30.11S WCI  21
PLATTSMOUTH    CLOUDY    30  27  89 S9        30.10F WCI  21
WAHOO          FAIR      32  30  92 SW9       30.08F WCI  24
$$




USA.gov is the U.S. government's official web portal to all federal, state and local government web resources and services.